[[{"header":{"parameterUnit":"m.s-1","parameterCategory":1,"la1":30.2991,"la2":30.254,"lo1":-89.0895,"lo2":-89.0444,"dy":0.0017,"dx":0.0017,"nx":28,"ny":28,"refTime":"2023-08-17T09:00:00:Z","depth":0,"parameterNumber":2,"parameterNumberName":"U-component_of_WINDS"},"data":[0,0,0,0,0,0,0,0,0,0,0,0,0,0,0,0,0,0,0,0,0,0,0,0,0,0,0,0,0,0,0,0,0,0,0,0,0,0,0,0,0,0,0,0,0,0,0,0,0,0,0,0,0,0,0,0,0,0,0.7422,0.7423,0,0.7544,0.7546,0.7547,0.7607,0.7607,0.7607,0.7607,0.7732,0.7735,0.7738,0,0,0,0,0,0,0,0,0,0,0,0,0,0.7237,0.724,0.7422,0.7423,0.7425,0.7544,0.7546,0.7547,0.7607,0.7607,0.7607,0.7607,0.7731,0.7735,0.7739,0,0,0,0,0,0,0,0,0,0,0,0,0,0.7334,0.7241,0.7421,0.7469,0.7474,0.7544,0.7546,0.7548,0.7607,0.7607,0.7607,0.7607,0.7729,0.7734,0.7739,0.7771,0,0,0.7754,0.7757,0,0,0,0,0,0,0,0,0.7329,0.7341,0.746,0.7466,0.7472,0.756,0.7527,0.7623,0.7607,0.7556,0.7607,0.7607,0.7675,0.7684,0.7707,0.7776,0.7782,0.7755,0.7758,0.776,0.7761,0,0,0,0,0,0,0,0.7322,0.7336,0.747,0.7462,0.7469,0.7483,0.7497,0.7545,0.7614,0.7561,0.7565,0.7579,0.7678,0.7702,0.7711,0.7784,0.7755,0.7759,0.7762,0.7764,0.7884,0.7884,0,0,0,0,0,0,0.7308,0.733,0.7466,0.7474,0.7399,0.7487,0.7502,0.7532,0.7614,0.7626,0.7579,0.7582,0.7694,0.7705,0.7715,0.7757,0.776,0.7765,0.7768,0.7884,0.7884,0.7884,0,0,0,0,0,0,0.7304,0.7319,0.7461,0.7403,0.7423,0.749,0.7523,0.7534,0.7559,0.7628,0.764,0.7591,0.7694,0.7708,0.7756,0.7762,0.7767,0.7772,0.7883,0.7884,0.7884,0.7841,0,0,0,0,0,0,0.7298,0.7318,0.7331,0.7403,0.7425,0.7501,0.7523,0.7537,0.7567,0.7572,0.7643,0.7654,0.7695,0.7748,0.7761,0.7769,0.7775,0.7883,0.7884,0.7884,0.7842,0.784,0.7838,0,0,0,0,0,0.7291,0.7314,0.7331,0.7347,0.7443,0.7501,0.7514,0.756,0.7568,0.7581,0.7625,0.7652,0.7759,0.7753,0.7768,0.7777,0.7883,0.7883,0.7884,0.7843,0.784,0.7838,0,0,0,0,0,0,0.724,0.7324,0.7344,0.7391,0.7438,0.7511,0.753,0.7556,0.7602,0.7604,0.766,0.7675,0.7718,0.7753,0.7744,0.7812,0.7824,0.7827,0.7788,0.7785,0.7783,0.7774,0.778,0,0,0,0,0,0.7235,0.7275,0.7346,0.738,0.7403,0.7462,0.7489,0.752,0.7572,0.7592,0.764,0.7688,0.7733,0.7761,0.7806,0.7847,0.7863,0.7861,0.7859,0.7856,0.7859,0.7882,0.7882,0.7885,0.7885,0.7885,0,0,0.7223,0.7274,0.7296,0.7371,0.7412,0.7451,0.7478,0.752,0.755,0.7598,0.7647,0.7683,0.774,0.7785,0.7807,0.7815,0.7861,0.7857,0.7855,0.7858,0.7883,0.7882,0.7882,0.7885,0.7885,0.7885,0,0,0.7223,0.7265,0.7299,0.7338,0.7399,0.7438,0.7445,0.7514,0.754,0.7589,0.7626,0.7662,0.7738,0.7777,0.7807,0.7819,0.7846,0.7832,0.7821,0.7843,0.7843,0.7843,0.7847,0.7848,0.7834,0.7834,0.7834,0,0.7201,0.7263,0.7312,0.7351,0.7383,0.7428,0.7461,0.7497,0.7569,0.759,0.7597,0.7693,0.7735,0.7789,0.7792,0.7814,0.7825,0.7825,0.7839,0.7839,0.784,0.7845,0.7846,0.7832,0.7832,0.7833,0.7833,0,0.7233,0.7275,0.7294,0.7363,0.7396,0.7432,0.7486,0.7514,0.7542,0.7579,0.7628,0.768,0.7736,0.7751,0.7779,0.7809,0.7812,0.7828,0.7842,0.7837,0.7842,0.7844,0.7829,0.783,0.7831,0.7831,0,0,0.7205,0.7299,0.7305,0.7337,0.7406,0.7439,0.7476,0.7531,0.7554,0.7601,0.7633,0.7696,0.7711,0.7745,0.7778,0.7797,0.7803,0.7812,0.7814,0.7808,0.7838,0.7825,0.7826,0.782,0.7821,0.7821,0.7833,0,0.7215,0.7285,0.7329,0.738,0.742,0.7462,0.7495,0.754,0.7576,0.7614,0.7653,0.7696,0.7714,0.7734,0.7755,0.7798,0.781,0.7798,0.7851,0.7852,0.7835,0.7829,0.7816,0.7825,0.7836,0.7836,0.7836,0,0.7236,0.7282,0.7337,0.7401,0.7419,0.7448,0.75,0.7536,0.7588,0.7613,0.7649,0.7682,0.7723,0.7732,0.7788,0.7778,0.7802,0.7826,0.7828,0.7835,0.7844,0.7836,0.7829,0.783,0.784,0.784,0.7839,0,0.721,0.7286,0.7329,0.7354,0.743,0.7448,0.7481,0.7533,0.7562,0.7608,0.7627,0.7677,0.7704,0.7742,0.7787,0.7789,0.7838,0.7851,0.7859,0.7858,0.7868,0.7867,0.7864,0.7883,0.7883,0.7883,0.7883,0,0.7216,0.7248,0.7318,0.7344,0.7381,0.7431,0.7466,0.7502,0.7547,0.7581,0.762,0.7651,0.7708,0.7745,0.7781,0.7821,0.7834,0.7854,0.7863,0.7851,0.7848,0.7868,0.7869,0.7883,0.7883,0.7883,0.7883,0,0.7194,0.7242,0.7291,0.7359,0.7376,0.74,0.7458,0.7484,0.7521,0.7563,0.7576,0.7634,0.768,0.7728,0.779,0.7814,0.7853,0.7866,0.7835,0.7841,0.7846,0.7845,0.7856,0.786,0.7875,0.7875,0.7875,0,0.7195,0.7221,0.729,0.7316,0.7347,0.7387,0.7417,0.7466,0.7496,0.7556,0.7575,0.7624,0.7666,0.7736,0.7784,0.7832,0.7846,0.7846,0.7853,0.784,0.7846,0.7844,0.7846,0.7844,0.7844,0.7844,0.7843,0,0.7192,0.7214,0.7256,0.7305,0.734,0.7381,0.7424,0.7442,0.75,0.7531,0.7578,0.761,0.7673,0.7721,0.7774,0.7807,0.7834,0.7841,0.7845,0.7833,0.7814,0.7824,0.783,0.784,0.7841,0.7841,0.7841,0.7841,0.7182,0.7206,0.7258,0.7303,0.7341,0.7379,0.7407,0.7448,0.7488,0.7543,0.7569,0.7616,0.7666,0.774,0.7772,0.7809,0.7817,0.7824,0.7825,0.7826,0.7823,0.7808,0.7819,0.7819,0.7819,0.7819,0.7819,0,0.718,0.7216,0.7256,0.7315,0.735,0.7372,0.7421,0.7448,0.7489,0.7533,0.7573,0.7626,0.7672,0.7723,0.7771,0.7791,0.7805,0.7802,0.7802,0.7809,0.7813,0.7804,0.779,0.779,0.779,0.779,0.779,0.779,0.7184,0.7226,0.7254,0.7314,0.735,0.7396,0.7421,0.7457,0.7493,0.755,0.7588,0.7621,0.7668,0.772,0.7762,0.7776,0.7792,0.7786,0.7803,0.7806,0.7808,0.7811,0.7803,0.7789,0.7789,0.7796,0.7796,0.7796]},{"header":{"parameterUnit":"m.s-1","parameterCategory":1,"la1":30.2991,"la2":30.254,"lo1":-89.0895,"lo2":-89.0444,"dy":0.0017,"dx":0.0017,"nx":28,"ny":28,"refTime":"2023-08-17T09:00:00:Z","depth":0,"parameterNumber":3,"parameterNumberName":"V-component_of_WINDS"},"data":[0,0,0,0,0,0,0,0,0,0,0,0,0,0,0,0,0,0,0,0,0,0,0,0,0,0,0,0,0,0,0,0,0,0,0,0,0,0,0,0,0,0,0,0,0,0,0,0,0,0,0,0,0,0,0,0,0,0,4.4913,4.4913,0,4.4831,4.483,4.4829,4.4752,4.4751,4.475,4.4749,4.4659,4.4658,4.4656,0,0,0,0,0,0,0,0,0,0,0,0,0,4.5,4.4999,4.4914,4.4913,4.4912,4.4831,4.483,4.4829,4.4752,4.4751,4.475,4.4749,4.466,4.4658,4.4656,0,0,0,0,0,0,0,0,0,0,0,0,0,4.4944,4.4998,4.4914,4.4864,4.4858,4.4831,4.483,4.4829,4.4753,4.4751,4.475,4.4748,4.4661,4.4658,4.4656,4.467,0,0,4.4649,4.4648,0,0,0,0,0,0,0,0,4.4948,4.4941,4.4872,4.4867,4.4861,4.4801,4.4827,4.4775,4.4753,4.4793,4.4749,4.4748,4.4707,4.4701,4.4688,4.4666,4.4662,4.4649,4.4647,4.4647,4.4646,0,0,0,0,0,0,0,4.4952,4.4944,4.4881,4.4871,4.4865,4.4844,4.4834,4.4817,4.4759,4.4789,4.4783,4.4775,4.4704,4.4691,4.4686,4.4661,4.4649,4.4647,4.4646,4.4645,4.4645,4.4646,0,0,0,0,0,0,4.4964,4.4948,4.4883,4.4878,4.4902,4.4844,4.4833,4.4821,4.4759,4.4748,4.4776,4.4772,4.4695,4.4688,4.4682,4.4694,4.4647,4.4644,4.4643,4.4643,4.4645,4.4646,0,0,0,0,0,0,4.4966,4.4959,4.4887,4.4912,4.4901,4.4844,4.4831,4.482,4.4807,4.4749,4.4738,4.4774,4.4694,4.4685,4.4674,4.469,4.4643,4.4641,4.4642,4.4644,4.4646,4.4718,0,0,0,0,0,0,4.4969,4.496,4.4966,4.4912,4.49,4.4881,4.4832,4.482,4.4804,4.4798,4.4744,4.4733,4.4692,4.4678,4.4672,4.4686,4.4639,4.464,4.4643,4.4645,4.4714,4.4722,4.473,0,0,0,0,0,4.4972,4.4988,4.4967,4.4959,4.4906,4.4883,4.4875,4.4829,4.4806,4.481,4.4773,4.4735,4.469,4.4677,4.467,4.4683,4.4639,4.4642,4.4645,4.4711,4.4721,4.4729,0,0,0,0,0,0,4.5043,4.498,4.4955,4.4955,4.4925,4.487,4.4874,4.4841,4.4815,4.481,4.4752,4.4741,4.4735,4.4708,4.4696,4.4693,4.4659,4.4661,4.4711,4.4721,4.4728,4.4734,4.4638,0,0,0,0,0,4.5059,4.5047,4.4992,4.4997,4.4983,4.4932,4.492,4.4887,4.4852,4.4839,4.48,4.4767,4.4745,4.4731,4.4708,4.471,4.4697,4.4716,4.4724,4.473,4.4732,4.473,4.4738,4.4657,4.4657,4.4657,0,0,4.5091,4.5055,4.5051,4.501,4.4983,4.497,4.4921,4.4909,4.4899,4.4836,4.4823,4.4794,4.4753,4.4749,4.4744,4.4725,4.4752,4.4734,4.474,4.4738,4.4734,4.4742,4.4749,4.4659,4.4658,4.4658,0,0,4.5143,4.5115,4.5116,4.5091,4.5051,4.5016,4.5017,4.4967,4.4945,4.4932,4.4885,4.4871,4.4834,4.4807,4.4788,4.4831,4.4794,4.4824,4.4864,4.4864,4.487,4.4875,4.489,4.4896,4.4827,4.4827,4.4827,0,4.5187,4.5167,4.512,4.5112,4.5095,4.504,4.504,4.5017,4.4971,4.4959,4.494,4.4893,4.4861,4.4849,4.486,4.4847,4.4844,4.483,4.4873,4.4878,4.4882,4.4895,4.4901,4.4831,4.483,4.483,4.4829,0,4.5224,4.5211,4.5216,4.5175,4.5159,4.5154,4.5105,4.5094,4.5063,4.5031,4.5018,4.4978,4.4946,4.494,4.4909,4.4924,4.4914,4.4885,4.4848,4.4895,4.4906,4.4911,4.4836,4.4835,4.4834,4.4833,0,0,4.5316,4.5251,4.5253,4.5234,4.5186,4.5174,4.5167,4.5138,4.5129,4.5099,4.5091,4.5062,4.5035,4.5014,4.4979,4.4979,4.5014,4.4949,4.4947,4.4962,4.5027,4.5048,4.5055,4.499,4.4991,4.4992,4.503,0,4.5359,4.5345,4.5303,4.5301,4.5287,4.5236,4.5229,4.5199,4.5168,4.5151,4.5117,4.5097,4.5063,4.505,4.5048,4.501,4.5026,4.5007,4.498,4.498,4.4991,4.5061,4.5083,4.5121,4.5034,4.5035,4.5035,0,4.5407,4.5383,4.538,4.5333,4.5326,4.5321,4.5291,4.5276,4.524,4.5217,4.5195,4.5157,4.5145,4.5113,4.5095,4.5083,4.5069,4.505,4.505,4.5044,4.5009,4.5056,4.5132,4.5138,4.5042,4.5041,4.5041,0,4.5474,4.544,4.5434,4.5419,4.5365,4.5363,4.534,4.5303,4.5288,4.526,4.525,4.5221,4.5205,4.5182,4.5137,4.5118,4.5124,4.5088,4.5103,4.5105,4.5106,4.5106,4.518,4.5099,4.5099,4.5099,4.5099,0,4.5525,4.5525,4.5464,4.546,4.5458,4.5409,4.5408,4.538,4.5348,4.5336,4.5289,4.5279,4.5221,4.5203,4.5168,4.5158,4.5151,4.5131,4.5122,4.5135,4.5137,4.5124,4.512,4.5101,4.51,4.51,4.51,0,4.5599,4.5558,4.5548,4.5498,4.5486,4.5486,4.5443,4.5436,4.5404,4.539,4.5384,4.5332,4.5309,4.5263,4.5227,4.5203,4.52,4.5184,4.5213,4.5207,4.5225,4.5223,4.5291,4.5297,4.5215,4.5216,4.5217,0,4.5634,4.5633,4.5584,4.5574,4.5554,4.5538,4.5523,4.5475,4.5461,4.542,4.5418,4.5393,4.5369,4.5335,4.5293,4.5265,4.5247,4.5273,4.5242,4.5255,4.5246,4.5246,4.5245,4.5279,4.528,4.5281,4.5282,0,4.57,4.568,4.5662,4.5636,4.562,4.5597,4.5571,4.5565,4.551,4.5496,4.5474,4.5456,4.542,4.5395,4.5361,4.5335,4.5299,4.5292,4.5294,4.5307,4.5324,4.5314,4.5231,4.529,4.529,4.5289,4.5288,4.5288,4.5755,4.5752,4.5717,4.5697,4.5674,4.5651,4.5642,4.561,4.5591,4.5559,4.5532,4.5512,4.5475,4.5426,4.5403,4.5385,4.5367,4.537,4.5371,4.5372,4.5377,4.5328,4.5378,4.5378,4.5378,4.5378,4.5377,0,4.5818,4.5794,4.5776,4.5743,4.5727,4.5697,4.5667,4.5656,4.5639,4.5609,4.5588,4.5562,4.5537,4.5494,4.5465,4.5459,4.5442,4.5453,4.5452,4.5446,4.5395,4.5396,4.5467,4.5467,4.5467,4.5467,4.5467,4.5467,4.5849,4.5842,4.5818,4.5798,4.5773,4.5755,4.574,4.5718,4.5694,4.5668,4.5648,4.5621,4.5585,4.5553,4.5529,4.5516,4.5507,4.5524,4.5506,4.5458,4.545,4.5442,4.5442,4.5522,4.5522,4.5559,4.5559,4.5559]}]]